Find Starlink 32276

NORAD ID: 60944 Int'l Des: 2024-155 Owner: SPXS Country: US Constellation: starlink operational
LEOCIRCULAR

Current View

Loading 3D Globe...

About Starlink 32276

Starlink 32276 (NORAD 60944) is a starlink constellation satellite (v2 mini) launched Aug 31, 2024 by SPXS of US. It operates in LEO, CIRCULAR orbit with a mass of 730.00 kg.

Upcoming Passes

Passes for default location (London). Set your location on the main map for personalized predictions.

Altitude History

Loading altitude history...

Two-Line Element Set

1 60944U 24155W 26237.93987075 .00001532 00000-0 56469-4 0 9993
2 60944 53.1566 61.3995 0001323 81.6008 278.5144 15.34395061112334
Epoch: Aug 25, 2026 • Age: 11 hours

Current Status

Altitude 481.6 km
Apogee / Perigee N/A
Velocity 7.62 km/s
Sub-Earth Point -51.89°S, 124.47°W
Launch Date Aug 31, 2024
Age 1.9 years
Type internet

Technical Details

Classification Payload
Mass 730.00 kg
Dry Mass 700.00 kg
Total Mass 730.00 kg
Length 0.30 m
Diameter 4.10 m
Span 29.00 m
Shape Box + pan
Manufacturer SPXS
Bus Type Starlink V2M
Phase Status In Orbit
Owner/State SPXS/US

Most Searched